Погода в Кокреке

Россия / Республика Дагестан     43°14′15″N   46°43′28″E
темп.,
°C
ветер,
м/с
пор.,
м/с
влажн.,
%
обл.,
%
осадки,
мм/ч
давл.,
гПа
погр.,
м
27 февраля, сб
сб2700:00+6зюз4980100 1.0 1023218
03:00+6з337899 1.1 102251
06:00+6ю228096 0.0 102122
09:00+7ююв127898 0.1 102022
12:00+10ссв227384 0.0 1019255
15:00+12в216351 0.0 1017552
18:00+9ююв23730 0.0 101722
21:00+8юз23760 0.0 101722
28 февраля, вс
вс2800:00+6з228042 0.0 101624
03:00+5вюв117942 0.0 101522
06:00+4зсз228845 0.0 101622
09:00+6з378466 0.0 1015402
12:00+7зсз3479100 0.0 1014525
15:00+6зсз3586100 0.0 1014364
18:00+5з2288100 0.1 101648
21:00+5зсз2491100 0.4 1018178
1 марта, пн
пн100:00+4зсз4696100 0.9 1018303
03:00+3сз3597100 2.4 1019296
06:00+3сз3597100 1.3 1021308
09:00+2сз3597100 3.1 1023346
12:00+2зсз4695100 1.1 1024365
15:00+3зсз3590100 1.3 1024410
18:00+2з238989 0.0 102690
21:00+1з228356 0.0 102722
2 марта, вт
вт200:00+1юз237895 0.0 102827
03:00+1зюз337890 0.0 102741
06:00+1зюз2379100 0.0 102836
09:00+4зсз246383 0.0 1028524
12:00+7сз23514 0.0 10271090
15:00+8с11452 0.0 10241418
18:00+5юв126027 0.0 102429
21:00+3ююз227013 0.0 102422
3 марта, ср
ср300:00+2юз227022 0.0 102222
03:00+2зсз227160 0.0 102034
06:00+2зюз2373100 0.0 102043
09:00+5зсз2359100 0.0 1019301
12:00+10сз5938100 0.0 10181907
15:00+5сз71077100 0.4 1018938
18:00+4зюз71174100 0.8 10201097
21:00+2з71194100 1.9 1022608